BHS137 MYNN-MYAM

Flight info

Callsign BHS137
Flight time N/A
Altitude 13000
Route DCT ZQA BR70V MRRSH DCT
Aircraft B732/M-SDFGHRWY/S

Departure

Time 2026-05-07 22:26
Airport Lynden Pindling International Airport (MYNN)

Arrival

Time N/A
Airport Leonard M. Thompson International Airport (MYAM)
Time Latitude Longitude Altitude Speed Heading
2026-05-07 22:15 25.04744 -77.46596 28 ft 0 kts 179°
2026-05-07 22:21 25.04743 -77.46596 28 ft 0 kts 184°
2026-05-07 22:22 25.04742 -77.46597 28 ft 0 kts 227°
2026-05-07 22:22 25.04742 -77.46600 28 ft 0 kts 279°
2026-05-07 22:22 25.04744 -77.46601 28 ft 0 kts 339°
2026-05-07 22:22 25.04770 -77.46611 28 ft 8 kts 308°
2026-05-07 22:23 25.04782 -77.46650 28 ft 0 kts 261°
2026-05-07 22:23 25.04763 -77.46680 28 ft 10 kts 222°
2026-05-07 22:23 25.04713 -77.46740 28 ft 10 kts 251°
2026-05-07 22:23 25.04750 -77.46826 28 ft 16 kts 318°
2026-05-07 22:24 25.04851 -77.46938 28 ft 24 kts 313°
2026-05-07 22:24 25.04983 -77.47089 28 ft 29 kts 314°
2026-05-07 22:24 25.05125 -77.47249 28 ft 28 kts 315°
2026-05-07 22:24 25.05221 -77.47382 27 ft 15 kts 274°
2026-05-07 22:25 25.05194 -77.47495 27 ft 15 kts 240°
2026-05-07 22:25 25.05115 -77.47493 27 ft 13 kts 134°
2026-05-07 22:25 25.05029 -77.47400 27 ft 25 kts 135°
2026-05-07 22:25 25.04732 -77.47064 28 ft 99 kts 135°
2026-05-07 22:26 25.04079 -77.46343 40 ft 164 kts 133°
2026-05-07 22:26 25.03205 -77.45369 514 ft 188 kts 135°
2026-05-07 22:26 25.02417 -77.44141 993 ft 215 kts 106°
2026-05-07 22:26 25.02458 -77.42453 1652 ft 228 kts 67°
2026-05-07 22:27 25.03384 -77.41058 2173 ft 232 kts 37°
2026-05-07 22:27 25.04900 -77.40299 2254 ft 258 kts 12°
2026-05-07 22:27 25.06666 -77.39703 2951 ft 264 kts 19°
2026-05-07 22:27 25.08347 -77.39008 3656 ft 260 kts 20°
2026-05-07 22:28 25.10047 -77.38277 4189 ft 262 kts 21°
2026-05-07 22:28 25.11750 -77.37530 4634 ft 267 kts 20°
2026-05-07 22:28 25.13500 -77.36764 5055 ft 271 kts 20°
2026-05-07 22:28 25.15253 -77.35996 5519 ft 273 kts 20°
2026-05-07 22:29 25.17015 -77.35224 5985 ft 274 kts 20°
2026-05-07 22:29 25.18768 -77.34454 6440 ft 275 kts 20°
2026-05-07 22:29 25.20553 -77.33672 6879 ft 277 kts 20°
2026-05-07 22:29 25.22348 -77.32883 7324 ft 278 kts 20°
2026-05-07 22:30 25.24147 -77.32092 7720 ft 281 kts 20°
2026-05-07 22:30 25.25972 -77.31291 8115 ft 283 kts 20°
2026-05-07 22:30 25.27804 -77.30486 8519 ft 285 kts 20°
2026-05-07 22:30 25.29655 -77.29672 8984 ft 289 kts 20°
2026-05-07 22:31 25.31495 -77.28862 9530 ft 290 kts 20°
2026-05-07 22:31 25.33387 -77.28030 10037 ft 293 kts 20°
2026-05-07 22:31 25.35264 -77.27204 10506 ft 296 kts 20°
2026-05-07 22:31 25.37177 -77.26361 11002 ft 297 kts 20°
2026-05-07 22:32 25.39096 -77.25517 11462 ft 300 kts 20°
2026-05-07 22:32 25.41028 -77.24665 11916 ft 302 kts 20°
2026-05-07 22:32 25.42988 -77.23801 12367 ft 305 kts 20°
2026-05-07 22:32 25.44970 -77.22948 12801 ft 306 kts 15°
2026-05-07 22:33 25.47096 -77.22555 13017 ft 315 kts
2026-05-07 22:33 25.49327 -77.22552 13018 ft 331 kts 356°
2026-05-07 22:33 25.51683 -77.22682 13017 ft 347 kts 355°
2026-05-07 22:33 25.54154 -77.22848 13015 ft 363 kts 355°
2026-05-07 22:34 25.56711 -77.23034 13014 ft 377 kts 355°
2026-05-07 22:34 25.59367 -77.23234 13012 ft 390 kts 355°
2026-05-07 22:34 25.62063 -77.23439 13001 ft 392 kts 355°
2026-05-07 22:34 25.64805 -77.23650 13000 ft 392 kts 355°
2026-05-07 22:35 25.67487 -77.23858 12999 ft 393 kts 355°
2026-05-07 22:35 25.70241 -77.24071 12999 ft 393 kts 355°
2026-05-07 22:35 25.72929 -77.24281 12999 ft 393 kts 355°
2026-05-07 22:35 25.75677 -77.24494 12999 ft 394 kts 355°
2026-05-07 22:36 25.78405 -77.24706 12999 ft 394 kts 355°
2026-05-07 22:36 25.81130 -77.24918 12999 ft 394 kts 355°
2026-05-07 22:36 25.83856 -77.25131 12999 ft 394 kts 355°
2026-05-07 22:36 25.86599 -77.25344 12999 ft 395 kts 355°
2026-05-07 22:37 25.89315 -77.25555 12999 ft 395 kts 355°
2026-05-07 22:37 25.92045 -77.25768 12999 ft 395 kts 355°
2026-05-07 22:37 25.94790 -77.25983 12999 ft 395 kts 355°
2026-05-07 22:37 25.97530 -77.26196 12999 ft 395 kts 355°
2026-05-07 22:38 26.00264 -77.26410 12999 ft 395 kts 355°
2026-05-07 22:38 26.03008 -77.26624 12999 ft 396 kts 355°
2026-05-07 22:38 26.05737 -77.26838 12999 ft 396 kts 355°
2026-05-07 22:38 26.08472 -77.27052 12999 ft 396 kts 355°
2026-05-07 22:39 26.11206 -77.27265 12999 ft 396 kts 355°
2026-05-07 22:39 26.13948 -77.27480 12999 ft 396 kts 355°
2026-05-07 22:39 26.16678 -77.27693 12999 ft 396 kts 355°
2026-05-07 22:39 26.19417 -77.27908 12999 ft 396 kts 355°
2026-05-07 22:40 26.22195 -77.28126 12999 ft 396 kts 355°